This demonstration page uses our WeatherBlox Daily Observations layout. Learn more.

Left ArrowRight Arrow

Hourly Observations for February 16, 2018

Temp ( °F °C ) Dew Point ( °F °C ) Humidity (%) Winds ( mph kmh ) Pressure ( in mb ) Visibility ( mi km ) Precip ( " mm )
12:07 am 00:07 Partly Cloudy 23 -5 16 -8.9 74 74 N 24 39 30.39 1029 10 16 0.00 0.00
12:54 am 00:54 Mostly Clear 21 -6.1 14 -10 74 74 N 21 33 30.40 1030 10 16 0.00 0.00
1:54 am 01:54 Clear 20 -6.7 12 -11.1 71 71 N 24 39 30.41 1030 10 16 0.00 0.00
2:54 am 02:54 Clear 18 -7.8 7 -13.9 62 62 N 23 37 30.46 1031 10 16 0.00 0.00
3:54 am 03:54 Clear 17 -8.3 5 -15 59 59 N 20 31 30.48 1032 10 16 0.00 0.00
4:54 am 04:54 Clear 15 -9.4 6 -14.4 67 67 NNW 15 24 30.50 1033 10 16 0.00 0.00
5:54 am 05:54 Clear 14 -10 2 -16.7 58 58 N 17 28 30.53 1034 10 16 0.00 0.00
6:54 am 06:54 Clear 13 -10.6 1 -17.2 59 59 NNW 14 22 30.53 1034 10 16 0.00 0.00
7:54 am 07:54 Sunny 13 -10.6 2 -16.7 61 61 N 7 11 30.55 1035 10 16 0.00 0.00
8:54 am 08:54 Sunny 16 -8.9 4 -15.6 59 59 NNW 9 15 30.57 1035 10 16 0.00 0.00
9:54 am 09:54 Sunny 18 -7.8 4 -15.6 54 54 NNW 5 7 30.55 1035 10 16 0.00 0.00
10:54 am 10:54 Sunny 21 -6.1 3 -16.1 45 45 N 3 6 30.53 1034 10 16 0.00 0.00
11:54 am 11:54 Sunny 24 -4.4 6 -14.4 46 46 VRB 5 7 30.51 1033 10 16 0.00 0.00
12:54 pm 12:54 Sunny 27 -2.8 7 -13.9 43 43 SW 9 15 30.48 1032 10 16 0.00 0.00
1:54 pm 13:54 Sunny 30 -1.1 9 -12.8 41 41 SW 7 11 30.42 1030 10 16 0.00 0.00
2:54 pm 14:54 Sunny 31 -0.6 9 -12.8 40 40 SSW 7 11 30.36 1028 10 16 0.00 0.00
3:54 pm 15:54 Sunny 33 0.6 11 -11.7 40 40 S 14 22 30.32 1027 10 16 0.00 0.00
4:54 pm 16:54 Sunny 33 0.6 11 -11.7 40 40 S 16 26 30.29 1026 10 16 0.00 0.00
5:54 pm 17:54 Sunny 29 -1.7 12 -11.1 49 49 S 10 17 30.27 1025 10 16 0.00 0.00
6:54 pm 18:54 Clear 27 -2.8 12 -11.1 53 53 SSE 9 15 30.25 1025 10 16 0.00 0.00
7:54 pm 19:54 Clear 23 -5 13 -10.6 65 65 S 8 13 30.24 1024 10 16 0.00 0.00
8:54 pm 20:54 Clear 22 -5.6 13 -10.6 68 68 S 7 11 30.20 1023 10 16 0.00 0.00
9:54 pm 21:54 Clear 23 -5 14 -10 68 68 S 7 11 30.18 1022 10 16 0.00 0.00
10:54 pm 22:54 Cloudy 25 -3.9 16 -8.9 69 69 S 10 17 30.15 1021 10 16 0.00 0.00
11:54 pm 23:54 Mostly Cloudy 26 -3.3 15 -9.4 63 63 S 9 15 30.11 1020 10 16 0.00 0.00

Powered by AerisWeather